Location: Kershaw
(34.5481°N, 80.5823°W)
Time: 03:09:04
(UTC+00:00)

Tiros 1 despin weight - Pass Details

Date: 09 October 2022
Orbit: 590 x 637 km, 48.2° (Epoch: 30 November)

Event Time Altitude Azimuth Distance (km) Brightness Sun altitude
Rises 02:22:54 0° 296° (WNW) 2,893 ? -42.3°
Enters shadow 02:24:43 - 288° (WNW) 2,244 ? -42.6°
Reaches altitude 10° 02:25:29 10° 284° (WNW) 1,992 - -42.7°
Maximum altitude 02:29:18 26° 227° (SW) 1,228 - -43.4°
Drops below altitude 10° 02:33:09 10° 170° (S) 2,004 - -44.1°
Sets 02:35:46 0° 158° (SSE) 2,913 - -44.6°
